Weather History for KBLH - July, 2013

Change the Weather History Date:

Friday, July 19, 2013

  Actual Average Record
Temperature  
Mean Temperature 95 °F -  
Max Temperature 102 °F 106 °F 116 °F (2000)
Min Temperature 88 °F 80 °F 70 °F (1987)
Cooling Degree Days 30    
Growing Degree Days 45 (Base 50)    
Moisture  
Dew Point 68 °F    
Average Humidity 44    
Maximum Humidity 57    
Minimum Humidity 29    
Precipitation  
Precipitation 0.00 in - - ()
Sea Level Pressure  
Sea Level Pressure 29.75 in    
Wind  
Wind Speed 15 mph (South)    
Max Wind Speed 20 mph    
Max Gust Speed 28 mph    
Visibility 10 miles    
Events      
Averages and records for this station are not official NWS values.
T = Trace of Precipitation, MM = Missing Value Source: NWS Daily Summary

Daily Weather History Graph

Daily Weather History Graph

Search for Another Location

Airport or City:

Trip Planner

Search our weather history database for the weather conditions in past years. The results will help you decide how hot, cold, wet, or windy it might be!

Date:

Astronomy

Jul. 19, 2013 Rise Set
Actual Time 5:42 AM PDT 7:47 PM PDT
Civil Twilight 5:14 AM PDT 8:15 PM PDT
Nautical Twilight 4:40 AM PDT 8:49 PM PDT
Astronomical Twilight 4:03 AM PDT 9:26 PM PDT
Moon 4:54 PM PDT (7/19) 2:26 AM PDT (7/19)
Length of Visible Light 15h 01m
Length of Day
14h 05m
Waxing Gibbous, 87% of the Moon is Illuminated
Jul 19
Waxing Gibbous
Jul 22
Full
Jul 29
Last Quarter
Aug 6
New
Aug 14
First Quarter

Hourly Weather History & Observations

Time (PDT) Temp. Heat Index Dew Point Humidity Pressure Visibility Wind Dir Wind Speed Gust Speed Precip Events Conditions
12:52 AM 95.0 °F 95.2 °F 61.0 °F 32% 29.72 in 10.0 mi South 16.1 mph - N/A   Clear
1:52 AM 93.0 °F 93.0 °F 61.0 °F 34% 29.71 in 10.0 mi South 12.7 mph - N/A   Clear
2:52 AM 93.0 °F 93.8 °F 62.1 °F 36% 29.70 in 10.0 mi South 13.8 mph - N/A   Clear
3:52 AM 89.1 °F 90.3 °F 64.0 °F 43% 29.74 in 10.0 mi South 12.7 mph - N/A   Clear
4:52 AM 88.0 °F 91.4 °F 68.0 °F 51% 29.76 in 10.0 mi South 19.6 mph - N/A   Partly Cloudy
5:52 AM 88.0 °F 92.9 °F 70.0 °F 55% 29.77 in 10.0 mi SSW 17.3 mph - N/A   Clear
6:52 AM 88.0 °F 93.8 °F 71.1 °F 57% 29.79 in 10.0 mi South 12.7 mph - N/A   Clear
7:52 AM 90.0 °F 96.4 °F 71.1 °F 54% 29.81 in 10.0 mi SSW 15.0 mph - N/A   Clear
8:52 AM 90.0 °F 97.9 °F 73.0 °F 57% 29.82 in 10.0 mi South 13.8 mph - N/A   Clear
9:52 AM 91.0 °F 97.6 °F 71.1 °F 52% 29.84 in 10.0 mi South 17.3 mph - N/A   Clear
10:52 AM 93.0 °F 100.7 °F 72.0 °F 50% 29.83 in 10.0 mi SSE 18.4 mph - N/A   Clear
11:52 AM 95.0 °F 103.2 °F 72.0 °F 47% 29.83 in 10.0 mi SSE 19.6 mph - N/A   Clear
12:52 PM 95.0 °F 102.5 °F 71.1 °F 46% 29.81 in 10.0 mi South 18.4 mph - N/A   Clear
1:52 PM 97.0 °F 105.5 °F 72.0 °F 44% 29.78 in 10.0 mi South 16.1 mph - N/A   Clear
2:52 PM 100.0 °F 107.0 °F 69.1 °F 37% 29.74 in 10.0 mi SSW 17.3 mph 27.6 mph N/A   Clear
3:52 PM 100.9 °F 105.3 °F 66.0 °F 32% 29.71 in 10.0 mi SW 12.7 mph 17.3 mph N/A   Clear
4:52 PM 102.9 °F 106.8 °F 64.9 °F 29% 29.68 in 10.0 mi SW 12.7 mph 18.4 mph N/A   Clear
5:52 PM 100.9 °F 106.7 °F 68.0 °F 34% 29.68 in 10.0 mi South 17.3 mph - N/A   Clear
6:52 PM 100.0 °F 104.9 °F 66.9 °F 34% 29.68 in 10.0 mi South 15.0 mph - N/A   Clear
7:52 PM 97.0 °F 102.8 °F 69.1 °F 40% 29.69 in 10.0 mi South 12.7 mph - N/A   Clear
8:52 PM 93.9 °F 98.6 °F 68.0 °F 43% 29.70 in 10.0 mi South 12.7 mph - N/A   Clear
9:52 PM 93.9 °F 97.5 °F 66.9 °F 41% 29.72 in 10.0 mi South 13.8 mph - N/A   Clear
10:52 PM 91.9 °F 97.4 °F 70.0 °F 48% 29.73 in 10.0 mi SSW 18.4 mph - N/A   Clear
11:52 PM 90.0 °F 96.4 °F 71.1 °F 54% 29.75 in 10.0 mi SSW 15.0 mph - N/A   Clear